Location: Sungai Bunut
(2.6333°N, 113.7333°E)
Time: 19:44:41
(UTC+00:00)

ATLAS 3B R/B - Pass Details

Date: 16 October 2021
Orbit: 989 x 1206 km, 63.8° (Epoch: 25 November)

Event Time Altitude Azimuth Distance (km) Brightness Sun altitude
Exits shadow 20:53:31 23° 313° (NW) 2,325 4.0 -19.4°
Maximum altitude 20:58:13 51° 248° (WSW) 1,487 3.1 -18.3°
Drops below altitude 10° 21:05:30 10° 174° (S) 3,131 5.3 -16.5°
Sets 21:08:20 0° 169° (S) 4,081 6.0 -15.8°
